| time (UTC) | temp C | wind direction | speed KPH | gust KPH | rain 1hr cm | rain 24hr cm | rain mn cm | humidity % | barometer mb |
| 20260504211550 | 9 | 304 | 3.2 | 16.1 | 0.00 | 0.10 | 0.00 | 65 | 1001.4 |
| 20260504210047 | 9 | 201 | 0.0 | 8.0 | 0.00 | 0.13 | 0.00 | 64 | 1001.5 |
| 20260504204550 | 9 | 267 | 1.6 | 9.7 | 0.00 | 0.13 | 0.00 | 63 | 1001.3 |
| 20260504203051 | 10 | 259 | 0.0 | 12.9 | 0.00 | 0.13 | 0.00 | 61 | 1001.2 |
| 20260504201543 | 9 | 190 | 0.0 | 4.8 | 0.00 | 0.13 | 0.00 | 63 | 1001.3 |
| 20260504200043 | 8 | 273 | 0.0 | 8.0 | 0.00 | 0.18 | 0.00 | 63 | 1001.4 |
| 20260504194547 | 8 | 261 | 1.6 | 11.3 | 0.00 | 0.18 | 0.00 | 63 | 1001.5 |
| 20260504193043 | 8 | 311 | 1.6 | 8.0 | 0.00 | 0.18 | 0.00 | 61 | 1001.6 |
| 20260504191542 | 8 | 281 | 0.0 | 9.7 | 0.00 | 0.18 | 0.00 | 60 | 1001.5 |
| 20260504190041 | 9 | 252 | 1.6 | 14.5 | 0.00 | 0.28 | 0.00 | 61 | 1001.6 |
| 20260504184540 | 10 | 299 | 4.8 | 20.9 | 0.00 | 0.28 | 0.00 | 54 | 1001.7 |
| 20260504183042 | 10 | 317 | 0.0 | 14.5 | 0.00 | 0.28 | 0.00 | 55 | 1001.7 |
| 20260504181539 | 10 | 188 | 3.2 | 11.3 | 0.00 | 0.28 | 0.00 | 49 | 1001.5 |
| 20260504180046 | 11 | 253 | 3.2 | 14.5 | 0.00 | 0.33 | 0.00 | 44 | 1001.3 |
| 20260504174543 | 11 | 216 | 3.2 | 19.3 | 0.00 | 0.33 | 0.00 | 39 | 1001.1 |
| 20260504173037 | 12 | 178 | 1.6 | 19.3 | 0.00 | 0.33 | 0.00 | 35 | 1000.9 |
| 20260504171537 | 12 | 292 | 3.2 | 19.3 | 0.00 | 0.33 | 0.00 | 33 | 1000.7 |
| 20260504081516 | 0 | 254 | 0.0 | 8.0 | 0.00 | 1.04 | 0.00 | 80 | 1001.2 |
| 20260504044546 | 3 | 329 | 6.4 | 19.3 | 0.00 | 1.09 | 0.00 | 76 | 1000.6 |
| 20260504043045 | 3 | 329 | 3.2 | 16.1 | 0.00 | 1.09 | 0.00 | 76 | 1000.5 |
| 20260504041541 | 3 | 274 | 0.0 | 19.3 | 0.00 | 1.09 | 0.00 | 77 | 1000.6 |
| 20260504040059 | 3 | 294 | 6.4 | 17.7 | 0.00 | 1.09 | 1.09 | 78 | 1000.5 |
| 20260504034536 | 3 | 336 | 6.4 | 16.1 | 0.00 | 1.09 | 1.09 | 80 | 1000.5 |
| 20260504033035 | 4 | 265 | 6.4 | 20.9 | 0.00 | 1.09 | 1.09 | 83 | 1000.3 |
| 20260504031533 | 4 | 321 | 1.6 | 9.7 | 0.00 | 1.09 | 1.09 | 85 | 1000.3 |
| 20260504030030 | 4 | 293 | 0.0 | 4.8 | 0.00 | 1.09 | 1.09 | 85 | 1000.4 |
| 20260504024530 | 4 | 265 | 3.2 | 11.3 | 0.00 | 1.09 | 1.09 | 85 | 1000.2 |
| 20260504023030 | 4 | 315 | 4.8 | 12.9 | 0.00 | 1.09 | 1.09 | 85 | 1000.2 |
| 20260504021528 | 5 | 271 | 1.6 | 8.0 | 0.00 | 1.09 | 1.09 | 84 | 1000.2 |
| 20260504020029 | 5 | 319 | 1.6 | 11.3 | 0.00 | 1.09 | 1.09 | 84 | 1000.2 |
| 20260504014527 | 5 | 317 | 1.6 | 12.9 | 0.00 | 1.09 | 1.09 | 84 | 1000.4 |
| 20260504013027 | 5 | 319 | 1.6 | 11.3 | 0.00 | 1.09 | 1.09 | 84 | 1000.4 |
| 20260504011526 | 5 | 292 | 1.6 | 25.7 | 0.00 | 1.09 | 1.09 | 84 | 1000.4 |
| 20260504010024 | 5 | 5 | 6.4 | 14.5 | 0.03 | 1.09 | 1.09 | 85 | 1000.4 |
| 20260504004533 | 5 | 338 | 4.8 | 9.7 | 0.03 | 1.09 | 1.09 | 85 | 1000.3 |
| 20260504003021 | 5 | 335 | 0.0 | 8.0 | 0.03 | 1.09 | 1.09 | 85 | 1000.2 |
| 20260504001519 | 5 | 311 | 0.0 | 12.9 | 0.03 | 1.09 | 1.09 | 84 | 1000.1 |
| 20260504000020 | 5 | 315 | 1.6 | 11.3 | 0.00 | 1.09 | 1.07 | 84 | 1000.1 |
| 20260503234517 | 5 | 355 | 1.6 | 12.9 | 0.03 | 1.09 | 1.07 | 84 | 1000.1 |
| 20260503233020 | 5 | 304 | 1.6 | 17.7 | 0.03 | 1.09 | 1.07 | 84 | 1000.1 |
| 20260503231514 | 5 | 325 | 3.2 | 16.1 | 0.03 | 1.09 | 1.07 | 84 | 1000.0 |
| 20260503230013 | 5 | 307 | 3.2 | 9.7 | 0.05 | 1.09 | 1.07 | 85 | 1000.1 |
| 20260503224511 | 5 | 291 | 3.2 | 12.9 | 0.03 | 1.07 | 1.04 | 85 | 1000.2 |
| 20260503223011 | 5 | 348 | 3.2 | 11.3 | 0.05 | 1.07 | 1.04 | 84 | 1000.2 |
| 20260503221510 | 5 | 360 | 3.2 | 14.5 | 0.05 | 1.07 | 1.04 | 84 | 1000.1 |
| 20260503220007 | 5 | 13 | 0.0 | 14.5 | 0.03 | 1.04 | 1.02 | 83 | 1000.2 |
| 20260503214504 | 5 | 334 | 3.2 | 9.7 | 0.03 | 1.04 | 1.02 | 83 | 1000.4 |
| 20260503213002 | 5 | 309 | 4.8 | 12.9 | 0.03 | 1.02 | 0.99 | 83 | 1000.6 |